sat.trackr.live / text

‹ back to catalog

STARLINK-32199

NORAD 60320 · 2024-133V

PAYLOAD ACTIVE UNKNOWN

§ Identity

Operator
Country
US
Launch date
2024-07-28
Launch site
AFWTR
Launch vehicle
Mass (kg)
RCS (m²)

Purposes: comms

External: N2YO · Heavens-Above · Gunter

§ Orbital elements

Epoch: 2026-09-21T19:35:46.413888Z

Period
93.85 min
Inclination
53.1597°
Eccentricity
0.0001230
Mean motion
15.34390100 rev/d
Perigee alt
461.9 km
Apogee alt
463.6 km
Semi-major
6,840.9 km
B*
-6.7497e-6
RAAN
103.5579°
Arg perigee
85.9260°
Mean anomaly
274.1883°
Rev number
12,170

§ Raw data

STARLINK-321991 60320U 24133V   26264.81650942 -.00000604  00000+0 -67497-5 0  99982 60320  53.1597 103.5579 0001230  85.9260 274.1883 15.34390100121709

JSON: /api/v1/satellites/60320 · /tle

For live sub-satellite position, see the globe view (requires WebGL).

§ Visibility from observer

Set your observer location to see the next 7 days of passes ≥ 10°. The values pass through the URL so the page stays shareable.

No JS? Fill the form by hand. The geolocation button needs JavaScript.